User: anonymous   Login
Location: Clatteringshaws Loch
(55.0508°N, 4.2860°W)
Time: 00:30:41
(UTC+01:00)
Language:

Sapphire - Orbit

View from above orbital plane
View from above orbital plane
View from above satellite
View from above satellite

Ground track
Ground track

The orbit data is extracted from the following two-line orbital elements,

1 26932U 01043D   14297.82725333  .00000217  00000-0  11579-3 0  7451
2 26932 067.0577 065.2272 0008108 287.5745 072.4470 14.30046433682182
Epoch (UTC): 24 October 2014 19:51:14
Eccentricity: 0.0008108
inclination: 67.0577°
perigee height: 786 km
apogee height: 797 km
right ascension of ascending node: 65.2272°
argument of perigee: 287.5745°
revolutions per day: 14.30046433
mean anomaly at epoch: 72.4470°
orbit number at epoch: 68218

The dashed part of the orbit path shows where the satellite is in the earth's shadow,  

DLR